[sarex] 2 Line ISS Keps 10-2

Dave Larsen PhD doc at volcano.net
Tue Oct 2 06:22:21 PDT 2007


ISS
1 25544U 98067A   07275.28321002  .00008769  00000-0  60944-4 0   874
2 25544 051.6344 271.4043 0002944 058.8628 062.7891 15.75349654507679


More information about the SAREX mailing list